Orbital Elements at Epoch 2459000.5 (2020-May-31.0) TDB
Reference: JPL 15 (heliocentric ecliptic J2000)
Element | Value | Uncertainty (1-sigma) | Units |
e | .1226632885317087 | 4.2933e-08 | |
a | 2.396848879965078 | 1.4722e-08 | au |
q | 2.102843514235019 | 1.0824e-07 | au |
i | 5.813137045103042 | 5.0587e-06 | deg |
node | 190.9117188108901 | 4.1266e-05 | deg |
peri | 31.76441871953826 | 4.6002e-05 | deg |
M | 311.3720188403192 | 2.1089e-05 | deg |
tp | 2459183.580944883062 (2020-Nov-30.08094488) | 8.0155e-05 | TDB |
period | 1355.374798338323 3.71 | 1.2487e-05 3.419e-08 | d yr |
n | .2656091882786641 | 2.4471e-09 | deg/d |
Q | 2.690854245695138 | 1.6527e-08 | au |
|
| | Orbit Determination Parameters
Additional Information
|